User: anonymous   Login
Location: Unspecified
(0.0000°N, 0.0000°E)
Time: 11:29:46
(UTC+02:00)
Language:

ATLAS V CENTAUR R/B - Orbit

View from above orbital plane
View from above orbital plane
View from above satellite
View from above satellite

Ground track
Ground track

The orbit data is extracted from the following two-line orbital elements,

1 27500U 02038B   15238.69388624 +.00003838 +00000-0 +77636-3 0  9996
2 27500 018.1770 050.0638 6866551 025.1400 009.4461 02.82046481106816
Epoch (UTC): 26 August 2015 16:39:11
Eccentricity: 0.6866551
inclination: 18.1770°
perigee height: 252 km
apogee height: 29311 km
right ascension of ascending node: 50.0638°
argument of perigee: 25.1400°
revolutions per day: 2.82046481
mean anomaly at epoch: 9.4461°
orbit number at epoch: 10681

The dashed part of the orbit path shows where the satellite is in the earth's shadow,  

DLR